Weather History for Central Park, NY

Change the Weather History Date:

Tuesday, February 26, 2013

  Actual Average Record
Temperature  
Mean Temperature 40 °F 37 °F  
Max Temperature 44 °F 44 °F 65 °F (1890)
Min Temperature 35 °F 31 °F 7 °F (1990)
Degree Days  
Heating Degree Days 25 28  
Month to date heating degree days 821 778  
Since 1 July heating degree days 3330 3467  
Cooling Degree Days 0 0  
Month to date cooling degree days 0 0  
Year to date cooling degree days 0 0  
Moisture  
Dew Point 30 °F    
Average Humidity 75    
Maximum Humidity 92    
Minimum Humidity 57    
Precipitation  
Precipitation 0.14 in 0.12 in 1.87 in (1929)
Month to date precipitation 2.69 2.85  
Year to date precipitation 5.45 6.50  
Snow  
Snow 0.00 in 0.30 in 11.50 in (2010)
Month to date snowfall 12.2 8.7  
Since 1 July snowfall 18.8 20.8  
Snow Depth 0.00 in    
Sea Level Pressure  
Sea Level Pressure 30.17 in    
Wind  
Wind Speed 8 mph (ENE)    
Max Wind Speed 20 mph    
Max Gust Speed 28 mph    
Visibility 9 miles    
Events Rain    
T = Trace of Precipitation, MM = Missing Value Source: NWS Daily Summary

Daily Weather History Graph

Daily Weather History Graph

Search for Another Location

Airport:

Trip Planner

Search our weather history database for the weather conditions in past years. The results will help you decide how hot, cold, wet, or windy it might be!

Date:

Astronomy

Feb. 26, 2013 Rise Set
Actual Time 6:34 AM EST 5:43 PM EST
Civil Twilight 6:06 AM EST 6:11 PM EST
Nautical Twilight 5:34 AM EST 6:43 PM EST
Astronomical Twilight 5:03 AM EST 7:15 PM EST
Moon 6:58 PM EST (2/26) 6:34 AM EST (2/26)
Length of Visible Light 12h 05m
Length of Day
11h 09m
Full, 99% of the Moon is Illuminated
Feb 26
Full
Mar 4
Last Quarter
Mar 11
New
Mar 19
First Quarter
Mar 27
Full

Hourly Weather History & Observations

Time (EST) Temp. Windchill Dew Point Humidity Pressure Visibility Wind Dir Wind Speed Gust Speed Precip Events Conditions
12:51 AM 39.0 °F 35.7 °F 27.0 °F 62% 30.21 in 10.0 mi ENE 4.6 mph - N/A   Clear
1:51 AM 37.9 °F 33.5 °F 27.0 °F 65% 30.25 in 10.0 mi NE 5.8 mph - N/A   Clear
2:51 AM 37.0 °F 34.5 °F 27.0 °F 67% 30.25 in 10.0 mi NE 3.5 mph - N/A   Clear
3:51 AM 37.0 °F 33.3 °F 28.0 °F 70% 30.24 in 10.0 mi NE 4.6 mph - N/A   Clear
4:51 AM 36.0 °F 32.1 °F 28.9 °F 76% 30.24 in 10.0 mi NE 4.6 mph - N/A   Clear
5:51 AM 36.0 °F 31.1 °F 30.0 °F 79% 30.24 in 10.0 mi NE 5.8 mph - N/A   Clear
6:51 AM 35.1 °F 28.6 °F 30.0 °F 82% 30.24 in 7.0 mi ENE 8.1 mph - N/A   Clear
7:51 AM 37.0 °F 32.4 °F 32.0 °F 82% 30.27 in 7.0 mi Variable 5.8 mph - N/A   Clear
8:51 AM 39.9 °F 36.7 °F 33.1 °F 77% 30.29 in 6.0 mi Variable 4.6 mph - N/A   Haze
9:51 AM 41.0 °F 37.1 °F 30.9 °F 67% 30.27 in 8.0 mi Variable 5.8 mph - N/A   Partly Cloudy
10:51 AM 42.1 °F 37.7 °F 30.9 °F 65% 30.28 in 9.0 mi East 6.9 mph - N/A   Overcast
11:51 AM 42.1 °F 37.7 °F 32.0 °F 67% 30.26 in 9.0 mi Variable 6.9 mph - N/A   Overcast
12:51 PM 43.0 °F 41.3 °F 30.9 °F 62% 30.25 in 10.0 mi Variable 3.5 mph - N/A   Overcast
1:51 PM 43.0 °F 37.7 °F 30.9 °F 62% 30.21 in 10.0 mi ENE 9.2 mph - N/A   Overcast
2:51 PM 43.0 °F 38.2 °F 28.9 °F 58% 30.20 in 10.0 mi SSE 8.1 mph - N/A   Overcast
3:51 PM 42.1 °F 35.7 °F 28.0 °F 58% 30.18 in 10.0 mi SE 11.5 mph 17.3 mph N/A   Overcast
4:51 PM 41.0 °F 36.4 °F 28.0 °F 60% 30.16 in 10.0 mi Variable 6.9 mph - N/A   Overcast
5:51 PM 39.9 °F 37.8 °F 28.0 °F 63% 30.14 in 10.0 mi Variable 3.5 mph - N/A   Overcast
6:51 PM 39.9 °F 34.5 °F 28.0 °F 63% 30.12 in 10.0 mi ESE 8.1 mph 18.4 mph N/A   Overcast
7:51 PM 39.0 °F 30.6 °F 28.0 °F 65% 30.09 in 10.0 mi ESE 15.0 mph 20.7 mph N/A   Overcast
8:51 PM 37.9 °F 30.0 °F 30.0 °F 73% 30.04 in 10.0 mi East 12.7 mph 23.0 mph 0.01 in   Overcast
9:25 PM 37.0 °F 28.9 °F 32.0 °F 82% 30.04 in 10.0 mi ENE 12.7 mph - N/A   Overcast
9:51 PM 36.0 °F 28.5 °F 32.0 °F 86% 30.01 in 9.0 mi ENE 10.4 mph 20.7 mph 0.00 in Rain Light Rain
9:59 PM 36.0 °F 26.7 °F 32.0 °F 86% 30.03 in 6.0 mi ENE 15.0 mph 21.9 mph 0.00 in Rain Light Rain
10:51 PM 36.0 °F 27.1 °F 34.0 °F 93% 29.96 in 3.0 mi ENE 13.8 mph 20.7 mph 0.07 in Rain Rain
11:51 PM 36.0 °F 26.3 °F 34.0 °F 93% 29.90 in 6.0 mi East 16.1 mph 24.2 mph 0.05 in Rain Light Rain